[[{"header":{"parameterUnit":"m.s-1","parameterCategory":1,"la1":30.2991,"la2":30.254,"lo1":-89.0895,"lo2":-89.0444,"dy":0.0017,"dx":0.0017,"nx":28,"ny":28,"refTime":"2025-02-07T03:00:00:Z","depth":0,"parameterNumber":2,"parameterNumberName":"U-component_of_WINDS"},"data":[0,0,0,0,0,0,0,0,0,0,0,0,0,0,0,0,0,0,0,0,0,0,0,0,0,0,0,0,0,0,0,0,0,0,0,0,0,0,0,0,0,0,0,0,0,0,0,0,0,0,0,0,0,0,0,0,0,0,-0.7511,-0.7511,0,-0.7508,-0.7508,-0.7508,-0.7511,-0.7511,-0.7511,-0.7511,-0.7508,-0.7508,-0.7507,0,0,0,0,0,0,0,0,0,0,0,0,0,-0.7517,-0.7517,-0.7511,-0.7511,-0.7511,-0.7508,-0.7508,-0.7508,-0.7511,-0.7511,-0.7511,-0.7511,-0.7508,-0.7508,-0.7507,0,0,0,0,0,0,0,0,0,0,0,0,0,-0.7514,-0.7517,-0.7511,-0.7512,-0.7512,-0.7508,-0.7508,-0.7508,-0.7511,-0.7511,-0.7511,-0.7511,-0.7508,-0.7508,-0.7507,-0.7502,0,0,-0.7507,-0.7506,0,0,0,0,0,0,0,0,-0.7514,-0.7514,-0.7512,-0.7512,-0.7512,-0.751,-0.7509,-0.7506,-0.7511,-0.7511,-0.7511,-0.7511,-0.7508,-0.7508,-0.7507,-0.7502,-0.7502,-0.7507,-0.7506,-0.7506,-0.7506,0,0,0,0,0,0,0,-0.7515,-0.7514,-0.751,-0.7511,-0.7512,-0.7512,-0.7512,-0.7509,-0.7509,-0.7511,-0.7511,-0.7511,-0.7508,-0.7508,-0.7507,-0.7502,-0.7507,-0.7506,-0.7506,-0.7506,-0.7493,-0.7493,0,0,0,0,0,0,-0.7515,-0.7514,-0.751,-0.751,-0.7514,-0.7512,-0.7512,-0.751,-0.7509,-0.7509,-0.7511,-0.7511,-0.7508,-0.7508,-0.7507,-0.7501,-0.7506,-0.7506,-0.7506,-0.7493,-0.7493,-0.7492,0,0,0,0,0,0,-0.7515,-0.7514,-0.751,-0.7512,-0.7511,-0.7512,-0.751,-0.751,-0.7509,-0.7509,-0.7509,-0.751,-0.7508,-0.7507,-0.7504,-0.7501,-0.7506,-0.7506,-0.7493,-0.7493,-0.7493,-0.7489,0,0,0,0,0,0,-0.7515,-0.7514,-0.7513,-0.7512,-0.7511,-0.7506,-0.751,-0.751,-0.7509,-0.7509,-0.7508,-0.7508,-0.7508,-0.7504,-0.7503,-0.7501,-0.7505,-0.7493,-0.7493,-0.7493,-0.7489,-0.7488,-0.7488,0,0,0,0,0,-0.7515,-0.7511,-0.7512,-0.7512,-0.7509,-0.7506,-0.7506,-0.7507,-0.7509,-0.7507,-0.7507,-0.7508,-0.7501,-0.7504,-0.7503,-0.75,-0.7493,-0.7493,-0.7493,-0.7489,-0.7488,-0.7488,0,0,0,0,0,0,-0.7511,-0.7511,-0.7512,-0.7508,-0.7507,-0.7507,-0.7504,-0.7506,-0.7504,-0.7504,-0.7505,-0.7505,-0.7501,-0.75,-0.7502,-0.7495,-0.7498,-0.7497,-0.7495,-0.7495,-0.7494,-0.7494,-0.7505,0,0,0,0,0,-0.751,-0.7508,-0.7508,-0.7504,-0.7504,-0.7504,-0.7503,-0.7504,-0.7503,-0.7502,-0.7502,-0.75,-0.7498,-0.7496,-0.7494,-0.7489,-0.7489,-0.7487,-0.7486,-0.7486,-0.7485,-0.7482,-0.7481,-0.7491,-0.7491,-0.7491,0,0,-0.7507,-0.7507,-0.7505,-0.7503,-0.7503,-0.75,-0.7504,-0.7501,-0.7499,-0.7502,-0.7498,-0.7498,-0.7496,-0.7492,-0.749,-0.7491,-0.7482,-0.7485,-0.7485,-0.7484,-0.7482,-0.7481,-0.748,-0.7491,-0.7491,-0.7491,0,0,-0.75,-0.75,-0.7497,-0.7496,-0.7496,-0.7496,-0.7495,-0.7495,-0.7495,-0.7491,-0.7493,-0.7491,-0.7487,-0.7485,-0.7484,-0.7478,-0.7479,-0.7477,-0.7473,-0.7471,-0.747,-0.7469,-0.7467,-0.7466,-0.7477,-0.7477,-0.7477,0,-0.7497,-0.7494,-0.7495,-0.7492,-0.7491,-0.7494,-0.7491,-0.749,-0.7488,-0.7487,-0.7489,-0.7484,-0.7484,-0.7479,-0.7477,-0.7476,-0.7475,-0.7477,-0.747,-0.7469,-0.7469,-0.7466,-0.7465,-0.7476,-0.7476,-0.7476,-0.7476,0,-0.7489,-0.7487,-0.7484,-0.7483,-0.7482,-0.7479,-0.748,-0.7478,-0.7479,-0.7479,-0.7476,-0.7475,-0.7473,-0.7472,-0.7473,-0.7467,-0.7468,-0.747,-0.7473,-0.7467,-0.7465,-0.7464,-0.7476,-0.7476,-0.7476,-0.7476,0,0,-0.7479,-0.7479,-0.7478,-0.7478,-0.7477,-0.7475,-0.7472,-0.7471,-0.7469,-0.7468,-0.7466,-0.7462,-0.7464,-0.7463,-0.7464,-0.7461,-0.7456,-0.7463,-0.7463,-0.7462,-0.745,-0.7448,-0.7447,-0.7457,-0.7457,-0.7457,-0.745,0,-0.7472,-0.7467,-0.7469,-0.7464,-0.7462,-0.7465,-0.7462,-0.7461,-0.7462,-0.746,-0.746,-0.7457,-0.746,-0.7459,-0.7457,-0.7457,-0.7454,-0.7458,-0.7454,-0.7454,-0.7454,-0.7446,-0.7444,-0.7437,-0.7449,-0.7449,-0.7449,0,-0.7463,-0.7462,-0.7457,-0.7457,-0.7456,-0.7454,-0.7453,-0.7451,-0.745,-0.7451,-0.7449,-0.7451,-0.7448,-0.7451,-0.7447,-0.745,-0.7448,-0.7448,-0.7448,-0.7447,-0.7451,-0.7444,-0.7435,-0.7434,-0.7447,-0.7447,-0.7447,0,-0.7456,-0.7453,-0.745,-0.745,-0.745,-0.7448,-0.7448,-0.7447,-0.7446,-0.7445,-0.7444,-0.7443,-0.7441,-0.744,-0.7441,-0.7443,-0.7436,-0.744,-0.7436,-0.7436,-0.7434,-0.7434,-0.7424,-0.7434,-0.7434,-0.7434,-0.7434,0,-0.7448,-0.7444,-0.7447,-0.7445,-0.7441,-0.7443,-0.7439,-0.7439,-0.7439,-0.7437,-0.7439,-0.7437,-0.7439,-0.7436,-0.7437,-0.7433,-0.7433,-0.7433,-0.7433,-0.7432,-0.7432,-0.7431,-0.7431,-0.7434,-0.7434,-0.7434,-0.7434,0,-0.7439,-0.744,-0.7437,-0.7437,-0.7437,-0.7435,-0.7435,-0.7433,-0.7434,-0.7431,-0.743,-0.7431,-0.7429,-0.743,-0.7427,-0.7428,-0.7423,-0.7424,-0.7423,-0.7423,-0.7419,-0.7419,-0.7408,-0.7406,-0.7418,-0.7418,-0.7418,0,-0.7433,-0.7431,-0.7431,-0.743,-0.743,-0.7428,-0.7427,-0.7429,-0.7428,-0.7427,-0.7425,-0.7423,-0.7421,-0.7418,-0.7418,-0.7416,-0.7417,-0.7413,-0.7416,-0.7416,-0.7416,-0.7416,-0.7415,-0.7412,-0.7411,-0.7411,-0.7411,0,-0.7423,-0.7424,-0.7422,-0.7421,-0.742,-0.7419,-0.7418,-0.7417,-0.7419,-0.7418,-0.7416,-0.7415,-0.7412,-0.741,-0.7409,-0.7408,-0.741,-0.741,-0.7409,-0.7408,-0.7408,-0.7408,-0.742,-0.741,-0.741,-0.7411,-0.7411,-0.7411,-0.7415,-0.7413,-0.7413,-0.7411,-0.7411,-0.741,-0.7408,-0.7409,-0.7408,-0.7406,-0.7407,-0.7405,-0.7404,-0.7403,-0.7402,-0.74,-0.7401,-0.74,-0.74,-0.7399,-0.7398,-0.7409,-0.74,-0.74,-0.74,-0.74,-0.74,0,-0.7404,-0.7404,-0.7403,-0.7402,-0.7401,-0.7403,-0.7403,-0.7401,-0.7399,-0.7399,-0.7398,-0.7395,-0.7393,-0.7394,-0.7392,-0.739,-0.7391,-0.739,-0.7389,-0.7389,-0.7397,-0.7398,-0.7389,-0.7389,-0.7389,-0.7389,-0.7389,-0.7389,-0.7398,-0.7395,-0.7396,-0.7392,-0.7393,-0.7391,-0.739,-0.7389,-0.7389,-0.7387,-0.7385,-0.7386,-0.7386,-0.7384,-0.7382,-0.7382,-0.7381,-0.738,-0.738,-0.7388,-0.7389,-0.739,-0.739,-0.738,-0.738,-0.7372,-0.7372,-0.7372]},{"header":{"parameterUnit":"m.s-1","parameterCategory":1,"la1":30.2991,"la2":30.254,"lo1":-89.0895,"lo2":-89.0444,"dy":0.0017,"dx":0.0017,"nx":28,"ny":28,"refTime":"2025-02-07T03:00:00:Z","depth":0,"parameterNumber":3,"parameterNumberName":"V-component_of_WINDS"},"data":[0,0,0,0,0,0,0,0,0,0,0,0,0,0,0,0,0,0,0,0,0,0,0,0,0,0,0,0,0,0,0,0,0,0,0,0,0,0,0,0,0,0,0,0,0,0,0,0,0,0,0,0,0,0,0,0,0,0,3.5981,3.5981,0,3.6027,3.6027,3.6028,3.6017,3.6016,3.6015,3.6014,3.606,3.6062,3.6064,0,0,0,0,0,0,0,0,0,0,0,0,0,3.5882,3.5884,3.5981,3.5981,3.5982,3.6027,3.6027,3.6028,3.6017,3.6016,3.6015,3.6013,3.6059,3.6062,3.6064,0,0,0,0,0,0,0,0,0,0,0,0,0,3.5926,3.5885,3.5981,3.5982,3.5982,3.6027,3.6027,3.6028,3.6017,3.6016,3.6014,3.6013,3.6059,3.6062,3.6065,3.611,0,0,3.6074,3.6075,0,0,0,0,0,0,0,0,3.5924,3.593,3.5981,3.5982,3.5982,3.6015,3.601,3.6056,3.6017,3.6004,3.6014,3.6012,3.6046,3.605,3.6062,3.6113,3.6115,3.6074,3.6076,3.6078,3.6078,0,0,0,0,0,0,0,3.5921,3.5928,3.5999,3.5982,3.5983,3.598,3.5984,3.6018,3.6032,3.6005,3.6004,3.601,3.6046,3.6059,3.6063,3.6115,3.6074,3.6077,3.6079,3.608,3.6208,3.6209,0,0,0,0,0,0,3.5917,3.5925,3.5997,3.6,3.5949,3.5982,3.5988,3.6006,3.6031,3.6034,3.6011,3.6009,3.6054,3.6059,3.6064,3.6121,3.6077,3.608,3.6082,3.6206,3.6208,3.621,0,0,0,0,0,0,3.5915,3.5924,3.5995,3.5963,3.5972,3.5986,3.6006,3.6007,3.602,3.6036,3.6038,3.6021,3.6053,3.606,3.6099,3.6122,3.6082,3.6085,3.6205,3.6207,3.6209,3.6234,0,0,0,0,0,0,3.5912,3.5923,3.5941,3.5963,3.5973,3.603,3.6007,3.6009,3.6025,3.6023,3.6046,3.6049,3.6053,3.6095,3.6103,3.6126,3.6087,3.6203,3.6206,3.6208,3.6231,3.6237,3.6242,0,0,0,0,0,3.5909,3.5945,3.5942,3.5951,3.5996,3.6032,3.6037,3.6041,3.6027,3.6045,3.6056,3.6048,3.6118,3.6099,3.6108,3.6132,3.6201,3.6205,3.6208,3.6229,3.6236,3.6242,0,0,0,0,0,0,3.5925,3.5948,3.5945,3.5989,3.6009,3.603,3.6053,3.6048,3.6072,3.6069,3.6072,3.6078,3.6119,3.6129,3.6107,3.6179,3.6158,3.6163,3.6171,3.6177,3.6183,3.618,3.609,0,0,0,0,0,3.5934,3.5961,3.598,3.6018,3.6028,3.6038,3.6054,3.6056,3.6076,3.6084,3.6097,3.6116,3.6143,3.616,3.6186,3.6232,3.6238,3.6253,3.6259,3.6263,3.6268,3.6295,3.6303,3.6221,3.6221,3.6221,0,0,3.5952,3.5968,3.5985,3.6021,3.6036,3.6065,3.6045,3.6076,3.6097,3.6088,3.6127,3.6137,3.6159,3.6203,3.6223,3.6213,3.6292,3.6267,3.6271,3.6274,3.63,3.6307,3.6314,3.6224,3.6223,3.6223,0,0,3.6,3.6015,3.6049,3.6065,3.6088,3.6095,3.6103,3.6125,3.6132,3.6171,3.6165,3.619,3.6236,3.6252,3.6266,3.6322,3.6316,3.633,3.6358,3.6384,3.6391,3.6396,3.6418,3.6425,3.6334,3.6334,3.6334,0,3.602,3.6063,3.6066,3.6098,3.6115,3.6108,3.6143,3.6158,3.6188,3.62,3.6188,3.6246,3.626,3.6308,3.6322,3.6333,3.6343,3.6328,3.639,3.6395,3.6401,3.6421,3.6429,3.6336,3.6336,3.6336,3.6335,0,3.6087,3.6117,3.6142,3.6172,3.6191,3.6224,3.6233,3.6251,3.6251,3.626,3.63,3.6317,3.6346,3.6357,3.6357,3.6406,3.64,3.6388,3.6368,3.641,3.643,3.6437,3.6338,3.6338,3.6337,3.6337,0,0,3.6148,3.618,3.6189,3.6204,3.6229,3.6253,3.6285,3.6314,3.6331,3.6352,3.6381,3.6419,3.641,3.6426,3.6427,3.645,3.6495,3.6437,3.6437,3.6449,3.6553,3.6562,3.6571,3.6491,3.6493,3.6494,3.6552,0,3.62,3.6259,3.6263,3.6316,3.6344,3.6338,3.6367,3.6386,3.6395,3.642,3.6429,3.6458,3.6442,3.6452,3.6474,3.6485,3.6517,3.6481,3.6519,3.652,3.6515,3.6581,3.6591,3.6645,3.6559,3.656,3.6561,0,3.6269,3.6294,3.635,3.6373,3.6385,3.641,3.6438,3.6462,3.6483,3.6488,3.6507,3.6505,3.6539,3.6516,3.6564,3.654,3.6555,3.6563,3.6565,3.657,3.6545,3.659,3.6662,3.6671,3.6573,3.6572,3.6571,0,3.631,3.6357,3.6397,3.6409,3.6436,3.6454,3.6466,3.6487,3.6504,3.6528,3.654,3.6567,3.6583,3.6604,3.661,3.6592,3.6658,3.6635,3.6664,3.6664,3.6679,3.6679,3.6757,3.6686,3.6686,3.6686,3.6686,0,3.6369,3.6405,3.6416,3.6441,3.648,3.6484,3.6523,3.6534,3.6552,3.6579,3.6574,3.66,3.6605,3.6632,3.6636,3.6676,3.6683,3.6688,3.6689,3.669,3.6689,3.6701,3.6698,3.6688,3.6688,3.6687,3.6687,0,3.6423,3.6431,3.6475,3.6497,3.6504,3.6532,3.6551,3.6575,3.6583,3.6617,3.6626,3.6638,3.667,3.6677,3.6714,3.6717,3.6765,3.6761,3.6758,3.6759,3.6788,3.6786,3.6878,3.6891,3.681,3.6811,3.6811,0,3.6461,3.6488,3.6513,3.6531,3.6545,3.6573,3.6592,3.6597,3.6616,3.6643,3.6664,3.6695,3.672,3.677,3.6783,3.6811,3.681,3.684,3.6814,3.6814,3.6813,3.6812,3.6815,3.6846,3.6846,3.6847,3.6848,0,3.6528,3.6532,3.6558,3.6587,3.6609,3.6632,3.6654,3.6669,3.6676,3.6698,3.6731,3.675,3.6788,3.682,3.6848,3.6861,3.6856,3.6856,3.6864,3.6866,3.6864,3.6868,3.6774,3.6854,3.6853,3.6853,3.6852,3.6852,3.6577,3.6601,3.6623,3.6654,3.667,3.6691,3.6715,3.6727,3.6754,3.6786,3.6786,3.6822,3.6843,3.6882,3.6896,3.6924,3.6915,3.6927,3.693,3.6934,3.6937,3.6858,3.6929,3.6929,3.6929,3.6929,3.6928,0,3.6646,3.666,3.6688,3.6719,3.6743,3.6736,3.676,3.678,3.6812,3.6832,3.6857,3.6895,3.6925,3.694,3.6971,3.699,3.6989,3.6998,3.6998,3.7001,3.6943,3.6933,3.6999,3.6999,3.6999,3.6999,3.6999,3.6999,3.6685,3.6727,3.6732,3.6782,3.6796,3.6831,3.6846,3.6865,3.6882,3.6924,3.695,3.6959,3.6978,3.7009,3.7037,3.7041,3.7053,3.7064,3.7066,3.7012,3.7005,3.6998,3.699,3.7066,3.7066,3.7123,3.7123,3.7124]}]]